Погода Свободный

Погода Свободный : погода сейчас, прогноз погоды и архив. Всё, что Вы хотите узнать о погоде Свободный!

Хотите узнать прогноз погоды Свободный? Тогда Вам сюда: Погода Свободный

Поиск расширенной информации на нашем сайте:

Другие новости

Новости СМИ2

Главная страница сайта

Новости сайта

02.10.2013

Напоминаем, что на нашем новом сайте вы можете получить высокодетализированные прогнозы погоды по пунктам России, СНГ и мира (включающие важные для авиации метеовеличины, такие как направление и скорость ветра, видимость, явления погоды, количество и форма облачности, нижняя и верхняя граница облачности), а также ознакомиться с разнообразными материалами по авиационной метеорологии и подборкой полезных ссылок на эту тему.

Сайт Метеоцентр.Азия посвящён разработке технологий оптимизации авиаметеорологического обслуживания, включая проектирование и перспективное создание нескольких автоматизированных авиаметеорологических систем:
- система выпуска высокодетальных прогностических карт явлений погоды для нижнего воздушного пространства по России и ближнему зарубежью;
- система верификации прогнозов TAF (выпускаемых синоптиками официальных АМСГ РФ и ближнего зарубежья) и AUTOTAF (выпускаемых сайтом Метеоцентр.Азия) - выявление ошибок, онлайн-сопоставление с фактической погодой METAR, автоматическое внесение коррективов в прогнозы при резком отклонении фактической погоды от прогноза, подсчёт оправдываемости прогнозов по элементам и в целом;
- система обработки, анализа и отображения авиаметеорологической информации для применения провайдерами метеорологической информации.

Рекомендуем: калькулятор стоимости пластиковых окон спб

Погода Свободный - сегодня

Время (UTC), дата Ветер
(°,м/с) 
Видим.   Явления Облачность Т
(°С)
Тd
(°С)
f(%) Тe
(°С)
Pmin
(гПа)
dP
(гПа)
Po
(мм)
O2
(г/м3)
Тmin Tmax R s Состояние
почвы
00 27.04.17 330 (СЗ) 20000 м    1/1 1000 м 
[Cu hum]
+11.6 -4.9 31 +11  1002.8  -0.7  734  284  +1.3        влажная 
03 27.04.17 320 (СЗ) 4-12{12}  20000 м    6/6 1000 м 
[Sc]
+13.9 -4.5 28 +14  1001.5  -1.1  734  282           
06 27.04.17 320 (СЗ) 4{12}  20000 м    8/8 600 м кучево-дожд. 
[Cb calv]
+13.2 -7.8 22 +13  1000.1  -1.4  732  282           
09 27.04.17 350 (С) 2{11}  20000 м    10/4 600 м кучево-дожд., верхняя 
[Cb calv|Ci sp]
+11.6 -8.9 23 +12  1000.1  732  284           
12 27.04.17 290 (З) 20000 м    10/0 верхняя 
[Ci fib]
+4.8 -5.3 48 +4  1001  0.4  733  291    +14.8       
15 27.04.17 290 (З) 50000 м    ясно 
+1.6 -5.5 59 +1  1000.4  -0.9  732  294           
18 27.04.17 310 (СЗ) 50000 м    10/0 верхняя 
[Ci sp]
-0.4 -6.2 65 999.6  -1  731  296           
21 27.04.17 290 (З) 20000 м    8/0 средняя 
[Ac trans]
+0.5 -4.5 69 +1  998.6  -0.9  731  294           
00 28.04.17 тихо ()   20000 м    9/6 1000 м средняя 
[Sc|Ac trans]
+9.3 -4.9 36 +9  996.5  -1.3  730  285  -2.2        влажная 
03 28.04.17 280 (З) 1{10}  4000 м  слаб. ливневой дождь  10/10 540 м кучево-дожд. 
[Cb calv]
+5.2 +3 86 +6  997.8  730  288           
06 28.04.17 350 (С) 20000 м  {ливн. осадки}  5/5 1000 м кучево-дожд. 
[Cb calv]
+11.3 +0.7 48 +12  996.2  -1.1  729  282           
09 28.04.17 290 (З) 4{11}  20000 м  {ливн. осадки}  5/5 600 м кучево-дожд. 
[Cb calv]
+10.1 -1.8 43 +9  996  -0.3  729  283           
12 28.04.17 тихо ()   50000 м  {ливн. осадки}  1/1 1000 м 
[Sc diur, vesp]
+4.5 -1.2 66 +5  996.3  -0.2  729  289    +11.9     
15 28.04.17 060 (СВ) 50000 м    10/0 верхняя 
[Ci sp]
+1 -1.4 84 +2  994.1  -2.4  727  292           
18 28.04.17 060 (СВ) 50000 м    10/4 1000 м средняя 
[Sc|Ac und]
+1.8 -1.3 80 +3  993.1  -0.8  727  291           
21 28.04.17 100 (В) 4000 м  слаб. дождь  10/10 540 м 
[Ns]
+2.6 +1.7 94 +3  991.3  -1.8  725  289           
00 29.04.17 140 (ЮВ) 4000 м  слаб. дождь  10/10 630 м 
[Ns]
+3.7 +2.1 89 +3  989.5  -1.6  724  287  +0.6      влажная 
03 29.04.17 100 (В) 4000 м  слаб. ливневой дождь  10/10 210 м кучево-дожд. 
[Cb calv]
+2.1 +1.2 94 +1  991.5  1.8  725  290           
06 29.04.17 070 (В) 20000 м  в посл. час ливневой дождь  10/10 400 м кучево-дожд. 
[Cb calv]
+4.1 +2.9 92 +4  993.2  1.9  727  288           
09 29.04.17 310 (СЗ) 20000 м  {дождь}  10/3 1000 м средняя 
[Sc|As op]
+5.6 +4 89 +5  995.6  2.4  729  287           
12 29.04.17 290 (З) 50000 м  {дождь}  9/0 средняя 
[Ac As]
+4.7 +2.6 86 +4  998.4  2.6  731  289    +6  10     
15 29.04.17 330 (СЗ) 50000 м    ясно 
+4.3 +0.5 76 +5  1000.6  2.1  732  290           
18 29.04.17 320 (СЗ) 50000 м    ясно 
+2.1 -0.9 81 +1  1002.4  1.6  733  293           
21 29.04.17 310 (СЗ) 20000 м    ясно 
+2.5 -3.6 64 +2  1004.8  2.4  735  294           
00 30.04.17 350 (С) 20000 м    ясно 
+9.7 -2.5 42 +10  1006.2  737  287  +0.4        мокрая 
Время (UTC), дата Ветер
(°,м/с) 
Видим.   Явления Облачность Т
(°С)
Тd
(°С)
f(%) Тe
(°С)
Pmin
(гПа)
dP
(гПа)
Po
(мм)
O2
(г/м3)
Тmin Tmax R s Состояние
почвы

Для получения пояснительной информации подведите курсор к названию столбца.

ПОГОДА Свободный - архив

Всё, что Вы хотите узнать о погоде Свободный - удобно и подробно!

Выберите нужную дату (начиная с 1 января 2015* года) и нажмите кнопку "Найти".
Будут отображены архивные сводки погоды по пункту Свободный, начиная с указанной даты.


Отображать данные в формате CSV (для использования в таблицах Excel)


Внимание! Наш архив погоды предназначен исключительно для личного некоммерческого использования в познавательных целях. Если Вам необходимы официальные справки о состоянии погоды (для производственных, юридических, коммерческих и т.п. целей), обращайтесь в органы Росгидромета.

*Примечание: данная дата относится к архиву по метеостанциям СССР (Россия, СНГ, Балтия).
Архив по метеостанциям Зарубежной Европы и Азии (кроме Китая) хранится 10 дней, по другим регионам земного шара (Китай, Африка, Америка, Австралия, Океания) - 1 день.

Свободный - район местоположения метеостанции


Название, широта, долгота, высота метеостанции:
Свободный 51.4°ш. 128.1°д. 197 м над ур. моря [Российская Федерация]

Дополнительная информация

В oтличие oт бoльшинства пoгoдных сайтoв мы публикуем пoдрoбную метеoинфoрмацию в детальнoм прoфессиoнальнoм фoрмате.

Характеристики температуры и влажнoсти вoздуха измеряются на высoте 2 м в тени вдали oт зданий и деревьев.
Скoрoсть ветра измеряется на высoте 10 м (на урoвне рoста челoвека скoрoсть ветра ниже в 1.5-2 раза). Если метеoстанция нахoдится в гoрoде или в лесу, тo скoрoсть ветра занижена на 2-4 м/с пo сравнению с oткрытым местoм. Скoрoсть ветра над акватoриями крупных рек и oзёр, а также на вершинах хoлмoв на 2-5 м/с выше, чем в oбычных услoвиях.
Атмoсфернoе давление в разных тoчках местнoсти мoжет значительнo oтличаться oт давления на метеoстанции, в зависимoсти oт услoвий рельефа (при пoдъёме на 10 м давление пoнижается примернo на 1 мм рт.ст.).